Terug naar catalogus

CZ-3C DEB

ActiefGTO
NORAD 40835·DEBRIS·🇨🇳 China

Gelanceerd Oct 31, 2010 vanaf Xichang Satellite Launch Center

Loading…

TLE

VerouderdSource: Space-Track

Epoch: Sep 10, 2026, 22:30 UTC

1 40835U 10057BC  26253.93815548  .00000065  00000-0  14120-2 0  9995
2 40835  20.1705  83.6935 7193275 192.9064 127.5093  2.20292088 14258

Volg CZ-3C DEB in realtime met AllMySat

Download on the App Store